PBO Station Position Time Series. Reference Frame : NAM14
Format Version,1.1.1
4-character ID,P576
Station name,GallegosRnCS2004
Begin Date, 2004-01-16
End Date, 2023-06-26
Release Date, 2023-06-27
Reference position, 35.6696621790 North Latitude, -120.9700005834 East Longitude, 324.40748 meters elevation,
Date, North (mm), East (mm), Vertical (mm), North Std. Deviation (mm), East Std. Deviation (mm),              Vertical Std. Deviation (mm), Quality,
2004-01-16,0.00, 0.00, 0.00, 2.58, 2.02, 9.89, repro,
2004-01-17,1.19, -0.36, 6.54, 2.26, 1.88, 8.98, repro,
2004-01-18,1.15, 0.37, 3.29, 2.31, 1.85, 8.81, repro,
2004-01-19,-1.36, 0.81, 5.77, 2.18, 1.81, 8.65, repro,
2004-01-20,-1.30, -0.32, -8.35, 2.41, 1.88, 9.14, repro,
2004-01-21,-3.20, 0.28, 1.43, 2.33, 1.89, 9.13, repro,
2004-01-22,-2.23, 0.23, -1.06, 2.30, 1.83, 8.93, repro,
2004-01-23,-0.15, -0.82, -7.90, 2.22, 1.84, 8.93, repro,
2004-01-24,-2.77, 0.33, -6.56, 2.27, 1.86, 8.87, repro,
2004-01-25,-2.77, -0.83, -4.23, 2.26, 1.87, 8.92, repro,
2004-01-26,-5.07, -0.10, 9.22, 2.20, 1.76, 8.69, repro,
2004-01-27,-2.89, -2.23, -6.97, 2.29, 1.95, 9.27, repro,
2004-01-28,-4.54, -1.40, -15.19, 2.32, 1.96, 9.23, repro,
2004-01-29,-4.42, -0.73, 11.51, 2.44, 1.94, 9.30, repro,
2004-01-30,-5.45, -1.52, 11.10, 2.27, 1.88, 9.16, repro,
2004-01-31,-5.21, -1.69, 4.50, 2.21, 1.81, 8.74, repro,
2004-02-01,-7.58, -1.97, 2.00, 2.11, 1.74, 8.53, repro,
2004-02-02,-7.76, -1.84, -9.96, 2.24, 1.84, 8.96, repro,
2004-02-03,-6.00, -4.11, -5.58, 2.29, 1.92, 9.16, repro,
2004-02-04,-6.57, -1.24, -1.02, 2.36, 1.96, 9.38, repro,
2004-02-05,-9.65, -0.85, 13.48, 2.22, 1.86, 8.85, repro,
2004-02-06,-6.73, -0.07, 2.35, 2.25, 1.89, 9.23, repro,
2004-02-07,-7.25, -2.95, 10.35, 2.27, 1.87, 8.98, repro,
2004-02-08,-7.38, -1.86, -2.32, 2.30, 1.83, 8.96, repro,
2004-02-09,-9.71, -1.68, 5.69, 2.27, 1.91, 9.20, repro,
2004-02-10,-8.36, -2.08, 12.83, 2.28, 1.92, 9.31, repro,
2004-02-11,-10.01, -2.19, 6.50, 2.40, 1.99, 9.16, repro,
2004-02-12,-9.42, -2.38, 0.97, 2.22, 1.86, 8.88, repro,
2004-02-13,-11.95, -2.95, 11.07, 2.32, 1.95, 9.61, repro,
2004-02-14,-8.48, -3.13, -1.16, 2.41, 1.94, 9.82, repro,
2004-02-15,-8.00, -2.56, -5.45, 2.32, 1.90, 9.70, repro,
2004-02-16,-13.47, -4.73, -5.02, 2.31, 1.87, 9.30, repro,
2004-02-17,-13.14, -3.89, -16.99, 2.33, 1.92, 9.40, repro,
2004-02-18,-11.63, -5.55, -11.95, 2.26, 1.84, 9.31, repro,
2004-02-19,-10.21, -2.79, 2.78, 2.21, 1.80, 8.94, repro,
2004-02-20,-9.91, -2.73, 5.12, 2.42, 1.95, 9.64, repro,
2004-02-21,-11.16, -3.18, 2.37, 2.33, 1.90, 8.95, repro,
2004-02-22,-13.25, -3.62, 6.22, 2.38, 1.92, 9.05, repro,
2004-02-23,-10.40, -5.71, 0.81, 2.71, 2.24, 11.10, repro,
2004-02-24,-11.30, -4.77, 4.69, 2.26, 1.79, 8.70, repro,
2004-02-25,-12.40, -4.66, 4.53, 2.29, 1.89, 9.25, repro,
2004-02-26,-9.09, -4.19, -21.81, 2.30, 1.92, 9.12, repro,
2004-02-27,-11.95, -3.94, 6.42, 2.34, 1.84, 8.82, repro,
2004-02-28,-12.43, -1.96, 0.68, 2.39, 1.97, 9.25, repro,
2004-02-29,-10.47, -1.60, -3.30, 2.32, 1.82, 8.77, repro,
2004-03-01,-13.03, -1.93, 0.62, 2.35, 1.97, 9.44, repro,
2004-03-02,-11.95, -3.87, 1.95, 2.28, 1.88, 8.96, repro,
2004-03-03,-12.77, -4.15, -3.69, 2.27, 1.92, 8.91, repro,
2004-03-04,-11.53, -4.32, 3.41, 2.43, 1.92, 9.18, repro,
2004-03-05,-12.46, -3.46, 6.81, 2.29, 1.91, 9.11, repro,
2004-03-06,-12.21, -1.43, -0.91, 2.34, 1.85, 9.00, repro,
2004-03-07,-12.51, -0.38, -1.75, 2.37, 1.94, 9.25, repro,
2004-03-08,-13.44, -1.54, -3.45, 2.31, 1.98, 9.32, repro,
2004-03-09,-12.58, -3.55, -4.68, 2.31, 1.94, 8.84, repro,
2004-03-10,-12.98, -1.67, 2.99, 2.33, 1.83, 8.88, repro,
2004-03-11,-13.24, -2.21, 6.47, 2.23, 1.83, 8.87, repro,
2004-03-12,-16.41, -2.65, 9.28, 2.33, 1.83, 8.88, repro,
2004-03-13,-14.06, 0.80, -4.40, 2.40, 1.98, 9.44, repro,
2004-03-14,-14.49, -3.07, -7.12, 2.32, 1.92, 9.10, repro,
2004-03-15,-13.72, -1.61, -4.25, 2.24, 1.84, 8.93, repro,
2004-03-16,-14.82, -3.69, 4.72, 2.26, 1.86, 9.14, repro,
2004-03-17,-16.04, -1.30, 15.92, 2.35, 1.85, 9.29, repro,
2004-03-18,-16.34, -1.44, 10.69, 2.47, 1.89, 9.68, repro,
2004-03-19,-15.27, -0.59, 13.82, 2.39, 1.99, 9.64, repro,
2004-03-20,-17.27, -0.70, 5.09, 2.73, 2.14, 10.60, repro,
2004-03-21,-15.94, -2.93, -5.78, 2.29, 1.90, 9.29, repro,
2004-03-22,-18.31, -1.39, 2.41, 2.43, 1.89, 9.48, repro,
2004-03-23,-18.14, -3.93, 15.35, 2.39, 1.97, 9.63, repro,
2004-03-24,-18.38, -0.65, 14.46, 2.58, 2.03, 10.20, repro,
2004-03-25,-16.65, -0.45, 1.24, 2.55, 2.10, 10.64, repro,
2004-03-26,-18.94, -3.75, 19.49, 2.44, 1.98, 9.94, repro,
2004-03-27,-16.60, -2.60, 7.98, 2.27, 1.85, 9.20, repro,
2004-03-28,-16.58, -2.87, 12.81, 2.37, 1.93, 9.55, repro,
2004-03-29,-19.32, -2.33, 16.81, 2.70, 2.31, 11.27, repro,
2004-03-30,-17.53, -3.25, 3.02, 2.46, 2.00, 9.79, repro,
2004-03-31,-16.92, -1.88, 6.19, 2.34, 1.91, 9.37, repro,
2004-04-01,-17.19, -2.82, -1.65, 2.29, 1.83, 9.11, repro,
2004-04-02,-17.27, -2.02, 8.70, 2.24, 1.83, 8.94, repro,
2004-04-03,-18.91, -3.44, 7.43, 2.26, 1.87, 9.04, repro,
2004-04-04,-20.10, -3.37, 14.43, 2.28, 1.88, 9.22, repro,
2004-04-05,-19.20, -3.20, 9.16, 2.36, 1.91, 9.44, repro,
2004-04-06,-17.94, -2.70, -1.46, 2.25, 1.81, 8.86, repro,
2004-04-07,-19.09, -2.68, 4.95, 2.35, 1.90, 9.36, repro,
2004-04-08,-18.30, -3.07, 4.50, 2.31, 1.85, 8.92, repro,
2004-04-09,-19.70, -2.65, 2.33, 2.22, 1.79, 8.71, repro,
2004-04-10,-19.52, -3.84, 7.94, 2.29, 1.83, 8.83, repro,
2004-04-11,-18.77, -4.67, 7.04, 2.31, 1.83, 8.88, repro,
2004-04-12,-18.31, -3.50, -5.67, 2.35, 1.87, 9.29, repro,
2004-04-13,-19.67, -4.50, 4.84, 2.29, 1.79, 8.93, repro,
2004-04-14,-20.60, -4.08, 4.87, 2.21, 1.77, 8.71, repro,
2004-04-15,-20.30, -3.98, 6.01, 2.20, 1.77, 8.66, repro,
2004-04-16,-20.31, -4.52, 10.53, 2.23, 1.75, 8.49, repro,
2004-04-17,-20.55, -6.13, 3.97, 2.32, 1.84, 9.31, repro,
2004-04-18,-21.00, -5.04, 11.91, 2.23, 1.78, 8.74, repro,
2004-04-19,-19.49, -2.99, 9.02, 2.27, 1.81, 8.74, repro,
2004-04-20,-22.38, -5.75, 15.99, 2.34, 1.89, 9.32, repro,
2004-04-21,-20.93, -5.63, 24.69, 2.20, 1.75, 8.62, repro,
2004-04-22,-20.22, -4.46, 11.74, 2.40, 1.93, 9.25, repro,
2004-04-23,-22.14, -4.89, 18.56, 2.22, 1.75, 8.61, repro,
2004-04-24,-20.38, -4.00, 1.82, 2.30, 1.82, 8.85, repro,
2004-04-25,-18.95, -4.74, 6.70, 2.30, 1.84, 8.97, repro,
2004-04-26,-21.99, -4.47, 5.37, 2.18, 1.74, 8.49, repro,
2004-04-27,-22.25, -4.35, 16.31, 2.22, 1.79, 8.75, repro,
2004-04-28,-22.32, -5.04, 15.26, 2.33, 1.86, 9.09, repro,
2004-04-29,-23.84, -6.41, 10.42, 2.31, 1.80, 8.79, repro,
2004-04-30,-23.10, -6.72, 7.60, 2.25, 1.80, 8.75, repro,
2004-05-01,-23.25, -6.06, 11.77, 2.31, 1.81, 9.18, repro,
2004-05-02,-20.99, -4.88, 13.81, 2.32, 1.82, 9.37, repro,
2004-05-03,-24.78, -7.06, 12.53, 2.29, 1.88, 9.11, repro,
2004-05-04,-23.78, -7.42, 17.48, 2.42, 1.92, 9.38, repro,
2004-05-05,-24.49, -6.64, 11.06, 2.29, 1.91, 8.99, repro,
2004-05-06,-22.56, -5.87, 5.95, 2.54, 2.22, 10.45, repro,
2004-05-07,-25.27, -6.94, 10.75, 2.41, 1.97, 9.36, repro,
2004-05-08,-23.26, -7.12, 2.64, 2.32, 1.94, 9.28, repro,
2004-05-09,-23.73, -6.56, 1.31, 2.90, 2.29, 11.11, repro,
2004-05-10,-24.17, -5.36, 6.15, 2.84, 2.18, 10.68, repro,
2004-05-11,-22.31, -7.32, 20.08, 2.26, 1.87, 9.02, repro,
2004-05-12,-24.86, -8.04, 18.08, 2.57, 2.30, 10.35, repro,
2004-05-13,-23.20, -6.07, 10.66, 2.40, 2.07, 9.72, repro,
2004-05-14,-24.83, -7.88, 7.12, 2.34, 1.96, 9.31, repro,
2004-05-15,-25.46, -6.62, 20.81, 2.29, 1.84, 8.67, repro,
2004-05-16,-24.78, -8.74, 18.72, 2.38, 1.95, 9.17, repro,
2004-05-17,-24.50, -10.24, 4.56, 2.36, 1.94, 8.99, repro,
2004-05-18,-25.30, -9.45, 8.07, 2.24, 1.81, 8.66, repro,
2004-05-19,-26.26, -11.02, 8.03, 2.59, 2.11, 10.53, repro,
2004-05-20,-25.28, -7.69, 11.95, 2.41, 1.83, 8.94, repro,
2004-05-21,-26.75, -8.87, 6.65, 2.53, 2.06, 9.77, repro,
2004-05-22,-27.97, -9.90, 11.82, 2.22, 1.74, 8.49, repro,
2004-05-23,-26.76, -9.91, 14.57, 2.19, 1.81, 8.77, repro,
2004-05-24,-24.43, -10.34, 10.90, 2.38, 1.92, 9.19, repro,
2004-05-25,-26.58, -10.39, 15.86, 2.20, 1.76, 8.68, repro,
2004-05-26,-26.84, -9.49, 12.43, 2.20, 1.75, 8.64, repro,
2004-05-27,-27.51, -10.02, 14.00, 2.27, 1.87, 8.88, repro,
2004-05-28,-26.52, -10.79, 10.29, 2.31, 1.94, 9.23, repro,
2004-05-29,-26.92, -11.59, 7.39, 2.31, 1.85, 8.84, repro,
2004-05-30,-25.94, -9.39, 12.22, 2.40, 1.95, 9.24, repro,
2004-05-31,-27.57, -11.87, 7.17, 2.19, 1.74, 8.59, repro,
2004-06-01,-26.17, -9.92, 7.98, 2.23, 1.77, 8.54, repro,
2004-06-02,-28.55, -11.07, 5.81, 2.24, 1.79, 8.83, repro,
2004-06-03,-29.00, -10.48, 11.44, 2.26, 1.85, 8.88, repro,
2004-06-04,-25.20, -9.98, 2.84, 2.20, 1.76, 8.42, repro,
2004-06-05,-27.10, -12.72, 6.35, 2.36, 1.91, 9.13, repro,
2004-06-06,-27.35, -10.42, 12.01, 2.19, 1.83, 8.79, repro,
2004-06-07,-27.37, -11.13, 14.55, 2.26, 1.83, 8.88, repro,
2004-06-08,-28.78, -12.09, 1.97, 2.32, 1.89, 9.27, repro,
2004-06-09,-29.37, -11.89, 16.33, 2.17, 1.75, 8.30, repro,
2004-06-10,-27.56, -11.14, 11.56, 2.24, 1.79, 8.81, repro,
2004-06-11,-29.07, -12.74, 12.08, 2.16, 1.75, 8.58, repro,
2004-06-12,-30.45, -12.39, 15.45, 2.33, 1.83, 9.09, repro,
2004-06-13,-30.61, -13.07, 8.61, 2.27, 1.80, 8.87, repro,
2004-06-14,-29.50, -13.06, 6.23, 2.38, 1.94, 9.50, repro,
2004-06-15,-29.49, -11.36, 17.38, 2.33, 1.87, 9.21, repro,
2004-06-16,-30.27, -13.31, 5.01, 2.35, 1.87, 9.20, repro,
2004-06-17,-29.08, -12.71, 3.60, 2.30, 1.85, 8.90, repro,
2004-06-18,-29.47, -11.97, 0.51, 2.29, 1.80, 8.78, repro,
2004-06-19,-28.59, -12.65, -1.43, 2.26, 1.83, 8.86, repro,
2004-06-20,-30.06, -12.82, 13.52, 2.24, 1.83, 8.91, repro,
2004-06-21,-30.38, -14.10, 5.97, 2.32, 1.87, 9.04, repro,
2004-06-22,-30.45, -13.82, 14.40, 2.22, 1.77, 8.79, repro,
2004-06-23,-29.51, -12.10, 1.02, 2.31, 1.83, 9.03, repro,
2004-06-24,-31.61, -15.31, 8.27, 2.19, 1.82, 8.71, repro,
2004-06-25,-29.65, -14.91, 4.01, 2.37, 1.89, 9.25, repro,
2004-06-26,-30.68, -13.79, 5.33, 2.21, 1.77, 8.49, repro,
2004-06-27,-31.44, -14.31, 7.71, 2.22, 1.78, 8.69, repro,
2004-06-28,-30.31, -13.65, -0.52, 2.28, 1.80, 8.84, repro,
2004-06-29,-30.12, -13.10, -0.61, 2.37, 1.91, 9.00, repro,
2004-06-30,-31.68, -14.39, 3.58, 2.28, 1.86, 8.81, repro,
2004-07-01,-31.11, -14.69, 2.96, 2.22, 1.80, 8.53, repro,
2004-07-02,-31.04, -13.26, 2.14, 2.28, 1.80, 8.66, repro,
2004-07-03,-30.93, -13.13, 6.41, 2.34, 1.87, 9.03, repro,
2004-07-04,-32.73, -14.46, 9.51, 2.31, 1.84, 8.72, repro,
2004-07-05,-30.48, -14.21, -4.61, 2.21, 1.79, 8.58, repro,
2004-07-06,-31.96, -14.41, 9.37, 2.31, 1.83, 8.72, repro,
2004-07-07,-30.83, -13.46, 2.64, 2.44, 1.93, 9.41, repro,
2004-07-08,-31.71, -16.09, 6.71, 2.22, 1.79, 8.56, repro,
2004-07-09,-30.60, -13.91, 10.73, 2.22, 1.78, 8.59, repro,
2004-07-10,-32.04, -14.71, 0.06, 2.20, 1.77, 8.53, repro,
2004-07-11,-31.63, -17.24, -1.92, 2.29, 1.81, 8.78, repro,
2004-07-12,-30.54, -15.20, 1.74, 2.33, 1.85, 9.05, repro,
2004-07-13,-30.71, -14.88, 1.81, 2.25, 1.78, 8.52, repro,
2004-07-14,-30.73, -14.73, 1.19, 2.22, 1.84, 8.77, repro,
2004-07-15,-31.98, -13.72, 1.46, 2.24, 1.80, 8.72, repro,
2004-07-16,-33.59, -15.87, 11.10, 2.45, 1.97, 9.80, repro,
2004-07-17,-30.85, -18.51, 3.37, 2.23, 1.78, 8.68, repro,
2004-07-18,-32.63, -15.44, 12.74, 2.29, 1.84, 8.97, repro,
2004-07-19,-33.38, -16.16, 6.17, 2.27, 1.84, 8.76, repro,
2004-07-20,-32.54, -17.85, 8.26, 2.27, 1.90, 8.96, repro,
2004-07-21,-32.30, -16.10, -0.45, 2.16, 1.84, 8.64, repro,
2004-07-22,-32.22, -17.26, 6.96, 2.16, 1.77, 8.52, repro,
2004-07-23,-32.44, -15.55, 9.59, 2.11, 1.74, 8.30, repro,
2004-07-24,-33.47, -16.88, 5.71, 2.29, 1.91, 8.90, repro,
2004-07-25,-33.87, -16.73, 11.38, 2.12, 1.73, 8.19, repro,
2004-07-26,-32.87, -17.33, -1.80, 2.16, 1.75, 8.37, repro,
2004-07-27,-33.12, -15.44, -2.65, 2.15, 1.77, 8.50, repro,
2004-07-28,-33.03, -17.42, 8.75, 2.24, 1.84, 8.84, repro,
2004-07-29,-33.79, -15.76, 10.01, 2.19, 1.81, 8.49, repro,
2004-07-30,-33.71, -17.52, 8.43, 2.12, 1.73, 8.22, repro,
2004-07-31,-35.67, -16.41, 6.78, 2.11, 1.77, 8.29, repro,
2004-08-01,-33.52, -17.10, 1.78, 2.24, 1.85, 8.79, repro,
2004-08-02,-35.34, -18.22, 2.73, 2.21, 1.78, 8.42, repro,
2004-08-03,-33.49, -16.90, 5.68, 2.21, 1.77, 8.46, repro,
2004-08-04,-34.88, -18.88, 12.23, 2.15, 1.72, 8.21, repro,
2004-08-05,-35.18, -16.66, 6.39, 2.14, 1.79, 8.39, repro,
2004-08-06,-34.65, -18.20, 2.03, 2.16, 1.82, 8.53, repro,
2004-08-07,-32.98, -17.74, -0.11, 2.20, 1.82, 8.81, repro,
2004-08-08,-32.89, -18.23, 9.31, 2.22, 1.86, 8.76, repro,
2004-08-09,-34.40, -18.46, 3.16, 2.22, 1.80, 8.46, repro,
2004-08-10,-34.96, -18.80, 4.66, 2.10, 1.72, 8.13, repro,
2004-08-11,-34.80, -18.36, 0.72, 2.12, 1.74, 8.25, repro,
2004-08-12,-34.53, -17.33, 10.06, 2.12, 1.78, 8.50, repro,
2004-08-13,-35.20, -19.09, -0.75, 2.15, 1.81, 8.50, repro,
2004-08-14,-37.07, -20.08, 6.49, 2.14, 1.79, 8.41, repro,
2004-08-15,-34.34, -18.37, 5.09, 2.14, 1.77, 8.32, repro,
2004-08-16,-34.84, -18.90, 2.20, 2.17, 1.83, 8.67, repro,
2004-08-17,-34.37, -18.88, -2.41, 2.31, 1.87, 9.07, repro,
2004-08-18,-33.47, -19.54, 6.18, 2.22, 1.78, 8.47, repro,
2004-08-19,-34.71, -18.71, -0.30, 2.15, 1.76, 8.29, repro,
2004-08-20,-35.57, -19.16, 0.72, 2.19, 1.80, 8.55, repro,
2004-08-21,-34.92, -18.72, -2.72, 2.21, 1.86, 8.81, repro,
2004-08-22,-36.86, -18.39, 1.88, 2.18, 1.74, 8.45, repro,
2004-08-23,-34.98, -18.39, 0.98, 2.16, 1.76, 8.53, repro,
2004-08-24,-33.78, -17.59, 0.06, 2.24, 1.85, 8.81, repro,
2004-08-25,-34.86, -18.86, 1.98, 2.19, 1.81, 8.52, repro,
2004-08-26,-35.03, -17.83, 4.74, 2.20, 1.83, 8.71, repro,
2004-08-27,-37.05, -18.50, 9.68, 2.20, 1.80, 8.68, repro,
2004-08-28,-36.62, -18.40, 8.40, 2.17, 1.85, 8.68, repro,
2004-08-29,-34.07, -18.45, -2.39, 2.28, 1.88, 8.91, repro,
2004-08-30,-34.50, -17.67, -1.53, 2.18, 1.87, 8.67, repro,
2004-08-31,-35.74, -18.70, -2.61, 2.21, 1.86, 8.65, repro,
2004-09-01,-35.69, -19.74, 4.94, 2.29, 2.02, 9.58, repro,
2004-09-02,-37.33, -18.33, 4.01, 2.36, 1.83, 8.80, repro,
2004-09-03,-37.18, -18.17, 7.25, 2.28, 1.85, 8.82, repro,
2004-09-04,-35.76, -18.18, 2.64, 2.22, 1.82, 8.71, repro,
2004-09-05,-35.69, -18.68, -0.65, 2.16, 1.83, 8.65, repro,
2004-09-06,-35.86, -18.28, 9.55, 2.73, 2.09, 10.68, repro,
2004-09-07,-36.82, -18.01, 5.89, 2.34, 1.93, 9.21, repro,
2004-09-08,-35.81, -17.79, 1.72, 2.55, 2.14, 10.00, repro,
2004-09-09,-37.15, -17.85, 16.14, 2.18, 1.87, 8.91, repro,
2004-09-10,-35.41, -17.98, 3.98, 2.17, 1.81, 8.81, repro,
2004-09-11,-36.10, -18.87, 2.95, 2.11, 1.74, 8.31, repro,
2004-09-12,-34.24, -18.51, 7.69, 2.28, 2.00, 9.46, repro,
2004-09-13,-36.74, -18.45, 4.91, 2.34, 1.87, 9.02, repro,
2004-09-14,-36.57, -18.28, 11.36, 2.33, 1.90, 9.15, repro,
2004-09-15,-35.65, -19.06, -0.50, 2.18, 1.85, 8.90, repro,
2004-09-16,-36.57, -17.60, 4.86, 2.17, 1.83, 8.75, repro,
2004-09-17,-36.85, -18.08, 2.20, 2.21, 1.84, 8.78, repro,
2004-09-18,-35.64, -17.33, -5.32, 2.12, 1.77, 8.31, repro,
2004-09-19,-33.80, -20.04, -10.27, 2.59, 2.11, 9.82, repro,
2004-09-20,-36.52, -19.49, 4.03, 2.23, 1.82, 8.80, repro,
2004-09-21,-37.19, -17.70, 1.61, 2.17, 1.81, 8.61, repro,
2004-09-22,-35.04, -17.04, -6.06, 2.32, 1.86, 8.94, repro,
2004-09-23,-35.21, -18.10, -6.52, 2.19, 1.88, 8.77, repro,
2004-09-24,-37.73, -18.43, 3.75, 2.30, 1.94, 8.89, repro,
2004-09-25,-36.70, -17.85, -7.46, 2.26, 1.86, 8.70, repro,
2004-09-26,-37.62, -17.39, -4.71, 2.17, 1.84, 8.64, repro,
2004-09-27,-36.45, -17.15, -4.68, 2.17, 1.84, 8.77, repro,
2004-09-28,-36.73, -18.33, -2.87, 2.17, 1.74, 8.25, repro,
2004-09-29,-40.39, -19.97, -3.53, 2.27, 1.80, 8.46, repro,
2004-09-30,-41.30, -22.40, -0.77, 2.15, 1.77, 8.40, repro,
2004-10-01,-39.44, -21.93, -7.40, 2.52, 2.04, 10.00, repro,
2004-10-02,-39.82, -20.82, -6.18, 2.35, 1.92, 9.23, repro,
2004-10-03,-41.58, -22.38, 3.22, 2.12, 1.75, 8.39, repro,
2004-10-04,-40.85, -20.65, -6.04, 2.27, 1.81, 8.48, repro,
2004-10-05,-41.66, -21.93, -10.29, 2.22, 1.84, 8.55, repro,
2004-10-06,-40.92, -22.34, -4.56, 2.20, 1.83, 8.70, repro,
2004-10-07,-40.28, -23.11, -0.48, 2.17, 1.81, 8.57, repro,
2004-10-08,-39.81, -22.39, -5.81, 2.27, 1.89, 8.92, repro,
2004-10-09,-41.42, -22.67, 2.06, 2.18, 1.94, 8.92, repro,
2004-10-10,-41.72, -22.65, 3.83, 2.21, 1.80, 8.46, repro,
2004-10-11,-41.75, -22.63, 9.84, 2.38, 1.90, 8.99, repro,
2004-10-12,-42.00, -21.71, -5.00, 2.52, 2.02, 9.99, repro,
2004-10-13,-41.88, -21.30, 0.46, 2.29, 1.88, 9.22, repro,
2004-10-14,-42.40, -22.12, 1.42, 2.20, 1.79, 8.46, repro,
2004-10-15,-43.20, -21.84, -7.00, 2.18, 1.78, 8.30, repro,
2004-10-16,-43.05, -23.12, 1.74, 2.08, 1.74, 8.18, repro,
2004-10-17,-46.48, -24.52, -7.43, 2.12, 1.74, 8.22, repro,
2004-10-18,-45.70, -24.18, 7.94, 2.17, 1.84, 8.71, repro,
2004-10-19,-44.99, -27.86, -3.20, 2.50, 2.01, 9.79, repro,
2004-10-20,-39.96, -25.01, -7.92, 2.23, 1.80, 8.50, repro,
2004-10-21,-42.77, -24.13, 1.05, 2.38, 1.92, 9.00, repro,
2004-10-22,-41.21, -22.53, 0.68, 2.24, 1.81, 8.56, repro,
2004-10-23,-42.20, -22.60, 5.83, 2.11, 1.75, 8.14, repro,
2004-10-24,-39.71, -21.80, 3.85, 2.15, 1.76, 8.31, repro,
2004-10-25,-41.04, -22.93, 8.06, 2.25, 1.86, 8.59, repro,
2004-10-26,-42.63, -24.91, 6.97, 2.24, 1.81, 8.59, repro,
2004-10-27,-41.38, -22.89, 6.68, 2.34, 1.84, 9.05, repro,
2004-10-28,-40.57, -22.73, 11.01, 2.12, 1.78, 8.29, repro,
2004-10-29,-40.87, -21.48, -0.54, 2.15, 1.83, 8.44, repro,
2004-10-30,-41.16, -22.08, 15.34, 2.29, 1.86, 8.89, repro,
2004-10-31,-38.91, -20.83, 2.09, 2.23, 1.79, 8.36, repro,
2004-11-01,-38.83, -21.13, 0.40, 2.23, 1.83, 8.62, repro,
2004-11-02,-40.65, -20.44, -3.52, 2.11, 1.78, 8.27, repro,
2004-11-03,-41.76, -21.37, 6.26, 2.15, 1.81, 8.54, repro,
2004-11-04,-42.47, -23.43, -0.57, 2.27, 1.81, 8.55, repro,
2004-11-05,-40.09, -20.96, 9.32, 2.32, 1.94, 9.02, repro,
2004-11-06,-39.08, -20.75, 0.74, 2.18, 1.80, 8.36, repro,
2004-11-07,-39.93, -20.37, -2.12, 2.35, 2.00, 9.45, repro,
2004-11-08,-40.02, -21.73, 6.76, 2.23, 1.88, 8.90, repro,
2004-11-09,-40.29, -20.25, 9.19, 2.26, 1.88, 8.72, repro,
2004-11-10,-40.89, -22.43, -4.65, 2.48, 2.34, 10.41, repro,
2004-11-11,-40.87, -20.15, -9.27, 2.14, 1.78, 8.21, repro,
2004-11-12,-38.96, -21.22, -5.65, 2.14, 1.76, 8.37, repro,
2004-11-13,-40.28, -19.90, 0.32, 2.41, 1.94, 9.53, repro,
2004-11-14,-39.23, -21.13, -8.72, 2.80, 2.22, 10.50, repro,
2004-11-15,-40.22, -21.30, -0.51, 2.21, 1.83, 8.52, repro,
2004-11-16,-41.55, -21.06, -3.48, 2.14, 1.83, 8.57, repro,
2004-11-17,-41.15, -21.32, 0.27, 2.19, 1.76, 8.19, repro,
2004-11-18,-40.83, -19.90, -3.45, 2.16, 1.81, 8.36, repro,
2004-11-19,-39.44, -19.42, -8.97, 2.31, 1.93, 9.03, repro,
2004-11-20,-41.85, -18.16, 3.86, 2.19, 1.81, 8.57, repro,
2004-11-21,-43.37, -21.35, 12.78, 2.15, 1.90, 8.60, repro,
2004-11-22,-42.37, -22.47, 0.05, 2.09, 1.76, 8.23, repro,
2004-11-23,-40.98, -20.58, 3.28, 2.24, 1.78, 8.42, repro,
2004-11-24,-40.77, -18.49, 3.78, 2.21, 1.81, 8.54, repro,
2004-11-25,-40.37, -19.92, 10.63, 2.34, 2.08, 9.61, repro,
2004-11-26,-40.95, -19.98, 8.30, 2.14, 1.90, 8.76, repro,
2004-11-27,-43.05, -22.91, 3.39, 2.16, 1.81, 8.44, repro,
2004-11-28,-41.74, -21.10, -1.74, 2.08, 1.73, 8.15, repro,
2004-11-29,-40.80, -19.79, -2.41, 2.11, 1.79, 8.34, repro,
2004-11-30,-39.85, -19.24, -0.95, 2.20, 1.81, 8.40, repro,
2004-12-01,-39.62, -18.97, -4.93, 2.22, 1.82, 8.68, repro,
2004-12-02,-42.02, -19.73, 0.25, 2.27, 1.78, 8.62, repro,
2004-12-03,-41.16, -20.03, 0.49, 2.23, 1.87, 8.73, repro,
2004-12-04,-42.09, -21.36, 0.92, 2.11, 1.74, 8.21, repro,
2004-12-05,-42.56, -20.28, -3.79, 2.11, 1.75, 8.30, repro,
2004-12-06,-42.86, -19.69, -0.58, 2.24, 1.82, 8.72, repro,
2004-12-07,-44.23, -23.62, 1.09, 2.19, 1.84, 8.54, repro,
2004-12-08,-40.39, -20.33, 1.70, 2.10, 1.74, 8.21, repro,
2004-12-09,-39.62, -19.34, -3.53, 2.15, 1.87, 8.56, repro,
2004-12-10,-39.60, -18.33, -0.15, 2.20, 1.82, 8.74, repro,
2004-12-11,-41.24, -20.19, 1.78, 2.21, 1.83, 8.75, repro,
2004-12-12,-40.12, -17.96, -12.85, 2.29, 1.83, 8.92, repro,
2004-12-13,-38.46, -20.78, 3.32, 2.17, 1.76, 8.29, repro,
2004-12-14,-40.77, -18.75, -6.49, 2.14, 1.79, 8.30, repro,
2004-12-15,-38.58, -19.25, -6.39, 2.14, 1.76, 8.28, repro,
2004-12-16,-40.79, -20.08, -2.51, 2.21, 1.75, 8.55, repro,
2004-12-17,-40.23, -18.72, -2.14, 2.15, 1.77, 8.31, repro,
2004-12-18,-40.14, -20.20, -0.63, 2.15, 1.80, 8.40, repro,
2004-12-19,-40.66, -19.71, -2.00, 2.23, 1.81, 8.37, repro,
2004-12-20,-40.29, -19.33, -1.15, 2.10, 1.75, 8.18, repro,
2004-12-21,-41.16, -18.95, 6.17, 2.14, 1.75, 8.40, repro,
2004-12-22,-40.57, -19.11, -4.45, 2.18, 1.76, 8.50, repro,
2004-12-23,-39.99, -19.41, -4.96, 2.10, 1.73, 8.11, repro,
2004-12-24,-40.57, -20.34, -0.48, 2.06, 1.74, 8.12, repro,
2004-12-25,-41.96, -20.44, 4.02, 2.09, 1.74, 8.20, repro,
2004-12-26,-41.37, -20.36, -5.06, 2.22, 1.76, 8.49, repro,
2004-12-27,-43.90, -21.68, -11.05, 2.30, 1.80, 8.75, repro,
2004-12-28,-42.22, -18.76, 2.97, 2.36, 1.82, 8.77, repro,
2004-12-29,-42.35, -21.33, 2.22, 2.20, 1.81, 8.72, repro,
2004-12-30,-41.58, -21.74, -8.98, 2.29, 1.79, 8.81, repro,
2004-12-31,-37.93, -16.11, 3.45, 2.29, 1.81, 8.69, repro,
2005-01-01,-41.11, -16.27, -0.17, 2.30, 1.80, 8.82, repro,
2005-01-02,-38.71, -16.85, -2.47, 2.31, 1.81, 8.90, repro,
2005-01-03,-40.67, -16.97, 2.06, 2.32, 1.81, 8.88, repro,
2005-01-04,-39.37, -15.05, -1.05, 2.27, 1.84, 8.97, repro,
2005-01-05,-37.65, -16.00, -1.69, 2.26, 1.91, 9.28, repro,
2005-01-06,-38.52, -12.39, 2.32, 2.71, 2.16, 10.52, repro,
2005-01-07,-36.86, -13.39, 1.11, 2.26, 1.82, 9.05, repro,
2005-01-08,-36.66, -17.60, -22.39, 2.17, 1.76, 8.65, repro,
2005-01-09,-38.96, -15.69, -3.72, 2.40, 1.92, 9.39, repro,
2005-01-10,-40.85, -20.05, -13.41, 2.19, 1.82, 8.75, repro,
2005-01-11,-40.17, -13.95, -3.38, 2.23, 1.93, 9.14, repro,
2005-01-12,-38.86, -11.57, 5.63, 2.21, 1.85, 8.89, repro,
2005-01-13,-36.69, -11.26, -4.43, 2.26, 1.87, 8.94, repro,
2005-01-14,-38.37, -12.29, -10.28, 2.26, 1.87, 8.79, repro,
2005-01-15,-38.73, -13.67, -7.72, 2.19, 1.86, 8.81, repro,
2005-01-16,-38.82, -12.93, -19.92, 2.14, 1.79, 8.66, repro,
2005-01-17,-39.15, -12.64, -9.75, 2.68, 2.09, 10.44, repro,
2005-01-18,-38.34, -10.97, -9.01, 2.19, 1.82, 8.79, repro,
2005-01-19,-38.63, -12.38, -7.16, 2.26, 1.86, 8.99, repro,
2005-01-20,-38.16, -13.48, 1.76, 2.22, 1.82, 8.91, repro,
2005-01-21,-39.91, -13.50, -2.31, 2.23, 1.86, 8.82, repro,
2005-01-22,-39.36, -12.22, -2.41, 2.25, 1.88, 9.16, repro,
2005-01-23,-38.72, -12.43, -0.39, 2.19, 1.80, 8.76, repro,
2005-01-24,-42.88, -14.17, 3.59, 2.22, 1.83, 8.87, repro,
2005-01-25,-40.27, -14.33, -3.21, 2.19, 1.86, 8.98, repro,
2005-01-26,-42.23, -16.02, -9.34, 2.31, 1.89, 9.18, repro,
2005-01-27,-38.27, -13.29, 0.04, 2.24, 1.86, 9.13, repro,
2005-01-28,-40.30, -17.92, -9.17, 2.19, 1.82, 8.75, repro,
2005-01-29,-38.69, -12.33, -2.58, 2.25, 1.82, 8.75, repro,
2005-01-30,-40.02, -13.35, -2.97, 2.10, 1.70, 8.13, repro,
2005-01-31,-37.90, -12.78, -3.40, 2.20, 1.82, 8.70, repro,
2005-02-01,-38.62, -12.18, -11.28, 2.10, 1.72, 8.27, repro,
2005-02-02,-38.38, -12.72, -9.08, 2.25, 1.84, 8.79, repro,
2005-02-03,-39.33, -12.66, -3.15, 2.20, 1.81, 8.59, repro,
2005-02-04,-37.63, -11.41, -7.55, 2.65, 1.91, 9.79, repro,
2005-02-05,-39.12, -13.50, 2.10, 2.20, 1.79, 8.46, repro,
2005-02-06,-38.73, -13.20, 2.30, 2.40, 2.24, 9.65, repro,
2005-02-07,-38.87, -13.52, -6.12, 2.15, 1.78, 8.49, repro,
2005-02-08,-37.75, -12.20, -8.11, 2.26, 1.84, 8.70, repro,
2005-02-09,-38.92, -12.98, -1.57, 2.23, 1.84, 8.64, repro,
2005-02-10,-39.67, -12.98, 2.36, 2.23, 1.79, 8.51, repro,
2005-02-11,-38.85, -12.84, -2.28, 2.20, 1.83, 8.71, repro,
2005-02-12,-38.85, -15.21, -0.88, 2.39, 1.88, 9.17, repro,
2005-02-13,-37.02, -12.94, -6.25, 2.22, 1.80, 8.77, repro,
2005-02-14,-37.64, -14.32, 0.99, 2.25, 1.87, 8.84, repro,
2005-02-15,-40.32, -13.23, 3.72, 2.19, 1.73, 8.41, repro,
2005-02-16,-40.42, -15.97, 0.03, 2.22, 1.74, 8.53, repro,
2005-02-17,-40.17, -14.83, 10.88, 2.75, 1.94, 10.43, repro,
2005-02-18,-43.21, -14.86, 3.36, 2.17, 1.73, 8.66, repro,
2005-02-19,-44.49, -18.22, 1.15, 2.15, 1.71, 8.37, repro,
2005-02-20,-43.49, -16.59, -6.78, 2.35, 1.96, 9.40, repro,
2005-02-21,-42.90, -14.45, -1.21, 2.22, 1.83, 8.83, repro,
2005-02-22,-37.96, -11.10, -11.30, 2.20, 1.75, 8.53, repro,